,,PressureMeas_1m,,PRMeasQMR101_1,,RHStat155_1m_1,,SRMeasQMS101R_1m,,TAStat155_1m_1,,GenWind_1,,GenWind_1,
2018-06-19, 00:00:06,VALID,918.86,VALID,0.0,VALID,96.393,VALID,0.005,VALID,20.096,VALID,351.0,VALID,0.0,
2018-06-19, 00:01:06,VALID,918.848,VALID,0.0,VALID,96.406,VALID,0.018,VALID,20.102,VALID,349.0,VALID,0.0,
2018-06-19, 00:02:06,VALID,918.828,VALID,0.0,VALID,96.427,VALID,0.015,VALID,20.097,VALID,338.0,VALID,0.0,
2018-06-19, 00:03:06,VALID,918.821,VALID,0.0,VALID,96.475,VALID,0.007,VALID,20.087,VALID,353.0,VALID,0.0,
2018-06-19, 00:04:06,VALID,918.794,VALID,0.0,VALID,96.493,VALID,0.007,VALID,20.068,VALID,355.0,VALID,0.0,
2018-06-19, 00:05:06,VALID,918.764,VALID,0.0,VALID,96.467,VALID,-0.014,VALID,20.063,VALID,358.0,VALID,0.0,
2018-06-19, 00:06:06,VALID,918.748,VALID,0.0,VALID,96.46,VALID,-0.001,VALID,20.075,VALID,328.0,VALID,0.0,
2018-06-19, 00:07:06,VALID,918.715,VALID,0.0,VALID,96.366,VALID,0.004,VALID,20.074,VALID,332.0,VALID,0.0,
2018-06-19, 00:08:06,VALID,918.714,VALID,0.0,VALID,96.272,VALID,-0.006,VALID,20.091,VALID,346.0,VALID,0.0,
2018-06-19, 00:09:06,VALID,918.696,VALID,0.0,VALID,96.125,VALID,-0.014,VALID,20.096,VALID,356.0,VALID,0.0,
2018-06-19, 00:10:06,VALID,918.691,VALID,0.0,VALID,96.176,VALID,-0.011,VALID,20.094,VALID,342.0,VALID,0.0,
2018-06-19, 00:11:06,VALID,918.659,VALID,0.0,VALID,96.198,VALID,-0.008,VALID,20.086,VALID,335.0,VALID,0.0,
2018-06-19, 00:12:06,VALID,918.651,VALID,0.0,VALID,96.213,VALID,-0.019,VALID,20.073,VALID,332.0,VALID,0.0,
2018-06-19, 00:13:06,VALID,918.662,VALID,0.0,VALID,96.23,VALID,-0.008,VALID,20.075,VALID,316.0,VALID,0.0,
2018-06-19, 00:14:06,VALID,918.671,VALID,0.0,VALID,96.123,VALID,0.001,VALID,20.099,VALID,306.0,VALID,0.0,
2018-06-19, 00:15:06,VALID,918.662,VALID,0.0,VALID,96.034,VALID,0.01,VALID,20.118,VALID,336.0,VALID,0.0,
2018-06-19, 00:16:06,VALID,918.646,VALID,0.0,VALID,96.025,VALID,0.001,VALID,20.119,VALID,5.0,VALID,0.0,
2018-06-19, 00:17:06,VALID,918.635,VALID,0.0,VALID,96.052,VALID,-0.002,VALID,20.093,VALID,340.0,VALID,0.0,
2018-06-19, 00:18:06,VALID,918.622,VALID,0.0,VALID,96.2,VALID,0.007,VALID,20.077,VALID,332.0,VALID,0.0,
2018-06-19, 00:19:06,VALID,918.614,VALID,0.0,VALID,96.184,VALID,-0.003,VALID,20.071,VALID,341.0,VALID,0.0,
2018-06-19, 00:20:06,VALID,918.618,VALID,0.0,VALID,96.218,VALID,-0.002,VALID,20.072,VALID,335.0,VALID,0.0,
2018-06-19, 00:21:06,VALID,918.608,VALID,0.0,VALID,96.207,VALID,-0.001,VALID,20.075,VALID,325.0,VALID,0.0,
2018-06-19, 00:22:06,VALID,918.593,VALID,0.0,VALID,96.21,VALID,-0.007,VALID,20.082,VALID,359.0,VALID,0.0,
2018-06-19, 00:23:06,VALID,918.587,VALID,0.0,VALID,96.303,VALID,0.004,VALID,20.074,VALID,352.0,VALID,0.0,
2018-06-19, 00:24:06,VALID,918.576,VALID,0.0,VALID,96.494,VALID,0.015,VALID,20.047,VALID,350.0,VALID,0.0,
2018-06-19, 00:25:06,VALID,918.551,VALID,0.0,VALID,96.813,VALID,0.009,VALID,20.029,VALID,353.0,VALID,0.0,
2018-06-19, 00:26:06,VALID,918.527,VALID,0.0,VALID,97.025,VALID,0.005,VALID,20.003,VALID,349.0,VALID,0.0,
2018-06-19, 00:27:06,VALID,918.533,VALID,0.0,VALID,97.216,VALID,0.018,VALID,19.993,VALID,322.0,VALID,0.0,
2018-06-19, 00:28:06,VALID,918.526,VALID,0.0,VALID,97.17,VALID,0.003,VALID,19.979,VALID,341.0,VALID,0.0,
2018-06-19, 00:29:06,VALID,918.515,VALID,0.0,VALID,97.063,VALID,0.002,VALID,19.974,VALID,349.0,VALID,0.0,
2018-06-19, 00:30:06,VALID,918.514,VALID,0.0,VALID,96.914,VALID,0.018,VALID,19.997,VALID,340.0,VALID,0.0,
2018-06-19, 00:31:06,VALID,918.483,VALID,0.0,VALID,96.944,VALID,0.014,VALID,20.027,VALID,337.0,VALID,0.0,
2018-06-19, 00:32:06,VALID,918.473,VALID,0.0,VALID,96.879,VALID,0.014,VALID,20.041,VALID,337.0,VALID,0.0,
2018-06-19, 00:33:06,VALID,918.466,VALID,0.0,VALID,96.92,VALID,0.005,VALID,20.045,VALID,335.0,VALID,0.0,
2018-06-19, 00:34:06,VALID,918.44,VALID,0.0,VALID,97.005,VALID,0.014,VALID,20.04,VALID,331.0,VALID,0.0,
2018-06-19, 00:35:06,VALID,918.434,VALID,0.0,VALID,96.997,VALID,0.008,VALID,20.022,VALID,343.0,VALID,0.0,
2018-06-19, 00:36:06,VALID,918.438,VALID,0.0,VALID,96.993,VALID,-0.0,VALID,20.017,VALID,314.0,VALID,0.0,
2018-06-19, 00:37:06,VALID,918.423,VALID,0.0,VALID,97.042,VALID,-0.002,VALID,20.03,VALID,352.0,VALID,0.0,
2018-06-19, 00:38:06,VALID,918.407,VALID,0.0,VALID,97.037,VALID,0.004,VALID,20.036,VALID,334.0,VALID,0.0,
2018-06-19, 00:39:06,VALID,918.365,VALID,0.0,VALID,96.962,VALID,0.012,VALID,20.043,VALID,2.0,VALID,0.0,
2018-06-19, 00:40:06,VALID,918.343,VALID,0.0,VALID,96.897,VALID,-0.005,VALID,20.037,VALID,359.0,VALID,0.0,
2018-06-19, 00:41:06,VALID,918.301,VALID,0.0,VALID,96.811,VALID,-0.002,VALID,20.025,VALID,355.0,VALID,0.0,
2018-06-19, 00:42:06,VALID,918.262,VALID,0.0,VALID,96.767,VALID,0.011,VALID,20.017,VALID,353.0,VALID,0.0,
2018-06-19, 00:43:06,VALID,918.237,VALID,0.0,VALID,96.703,VALID,0.011,VALID,20.034,VALID,345.0,VALID,0.0,
2018-06-19, 00:44:06,VALID,918.22,VALID,0.0,VALID,96.583,VALID,-0.005,VALID,20.053,VALID,346.0,VALID,0.0,
2018-06-19, 00:45:06,VALID,918.212,VALID,0.0,VALID,96.535,VALID,-0.012,VALID,20.059,VALID,341.0,VALID,0.0,
2018-06-19, 00:46:06,VALID,918.189,VALID,0.0,VALID,96.526,VALID,-0.012,VALID,20.059,VALID,345.0,VALID,0.0,
2018-06-19, 00:47:06,VALID,918.168,VALID,0.0,VALID,96.551,VALID,-0.012,VALID,20.059,VALID,339.0,VALID,0.0,
2018-06-19, 00:48:06,VALID,918.158,VALID,0.0,VALID,96.542,VALID,-0.001,VALID,20.065,VALID,343.0,VALID,0.0,
2018-06-19, 00:49:06,VALID,918.138,VALID,0.0,VALID,96.581,VALID,0.011,VALID,20.056,VALID,1.0,VALID,0.0,
2018-06-19, 00:50:06,VALID,918.11,VALID,0.0,VALID,96.7,VALID,-0.007,VALID,20.05,VALID,350.0,VALID,0.0,
2018-06-19, 00:51:06,VALID,918.084,VALID,0.0,VALID,96.737,VALID,-0.01,VALID,20.04,VALID,343.0,VALID,0.0,
2018-06-19, 00:52:06,VALID,918.072,VALID,0.0,VALID,96.683,VALID,-0.012,VALID,20.04,VALID,309.0,VALID,0.0,
2018-06-19, 00:53:06,VALID,918.046,VALID,0.0,VALID,96.748,VALID,-0.023,VALID,20.057,VALID,325.0,VALID,0.0,
2018-06-19, 00:54:06,VALID,918.048,VALID,0.0,VALID,96.727,VALID,-0.02,VALID,20.067,VALID,337.0,VALID,0.0,
2018-06-19, 00:55:06,VALID,918.048,VALID,0.0,VALID,96.629,VALID,-0.016,VALID,20.059,VALID,355.0,VALID,0.0,
2018-06-19, 00:56:06,VALID,918.053,VALID,0.0,VALID,96.621,VALID,-0.006,VALID,20.047,VALID,353.0,VALID,0.0,
2018-06-19, 00:57:06,VALID,918.073,VALID,0.0,VALID,96.75,VALID,0.005,VALID,20.025,VALID,357.0,VALID,0.0,
2018-06-19, 00:58:06,VALID,918.068,VALID,0.0,VALID,96.94,VALID,-0.005,VALID,20.016,VALID,343.0,VALID,0.0,
2018-06-19, 00:59:06,VALID,918.064,VALID,0.0,VALID,97.01,VALID,0.0,VALID,20.003,VALID,349.0,VALID,0.0,
2018-06-19, 01:00:06,VALID,918.054,VALID,0.0,VALID,97.04,VALID,0.007,VALID,19.989,VALID,360.0,VALID,0.0,
2018-06-19, 01:01:06,VALID,918.052,VALID,0.0,VALID,97.044,VALID,-0.018,VALID,19.98,VALID,2.0,VALID,0.0,
2018-06-19, 01:02:06,VALID,918.038,VALID,0.0,VALID,97.015,VALID,0.007,VALID,19.977,VALID,1.0,VALID,0.0,
2018-06-19, 01:03:06,VALID,918.029,VALID,0.0,VALID,97.039,VALID,-0.007,VALID,19.973,VALID,360.0,VALID,0.0,
2018-06-19, 01:04:06,VALID,918.032,VALID,0.0,VALID,97.026,VALID,0.008,VALID,19.98,VALID,343.0,VALID,0.0,
2018-06-19, 01:05:06,VALID,918.026,VALID,0.0,VALID,97.021,VALID,0.01,VALID,19.99,VALID,333.0,VALID,0.0,
2018-06-19, 01:06:06,VALID,918.032,VALID,0.0,VALID,96.978,VALID,-0.004,VALID,20.007,VALID,335.0,VALID,0.0,
2018-06-19, 01:07:06,VALID,918.035,VALID,0.0,VALID,96.917,VALID,0.002,VALID,20.033,VALID,327.0,VALID,0.0,
2018-06-19, 01:08:06,VALID,918.023,VALID,0.0,VALID,96.863,VALID,0.003,VALID,20.054,VALID,324.0,VALID,0.0,
2018-06-19, 01:09:06,VALID,918.015,VALID,0.0,VALID,96.764,VALID,0.001,VALID,20.063,VALID,356.0,VALID,0.0,
2018-06-19, 01:10:06,VALID,917.995,VALID,0.0,VALID,96.727,VALID,-0.004,VALID,20.062,VALID,2.0,VALID,0.0,
2018-06-19, 01:11:06,VALID,917.983,VALID,0.0,VALID,96.712,VALID,-0.01,VALID,20.056,VALID,354.0,VALID,0.0,
2018-06-19, 01:12:06,VALID,917.978,VALID,0.0,VALID,96.742,VALID,-0.026,VALID,20.053,VALID,343.0,VALID,0.0,
2018-06-19, 01:13:06,VALID,917.972,VALID,0.0,VALID,96.73,VALID,-0.011,VALID,20.051,VALID,352.0,VALID,0.0,
2018-06-19, 01:14:06,VALID,917.97,VALID,0.0,VALID,96.767,VALID,0.004,VALID,20.051,VALID,359.0,VALID,0.0,
2018-06-19, 01:15:06,VALID,917.965,VALID,0.0,VALID,96.802,VALID,0.008,VALID,20.048,VALID,349.0,VALID,0.0,
2018-06-19, 01:16:06,VALID,917.965,VALID,0.0,VALID,96.819,VALID,0.011,VALID,20.035,VALID,348.0,VALID,0.0,
2018-06-19, 01:17:06,VALID,917.966,VALID,0.0,VALID,96.851,VALID,0.005,VALID,20.023,VALID,338.0,VALID,0.0,
2018-06-19, 01:18:06,VALID,917.956,VALID,0.0,VALID,96.885,VALID,-0.003,VALID,20.02,VALID,333.0,VALID,0.0,
2018-06-19, 01:19:06,VALID,917.942,VALID,0.0,VALID,96.88,VALID,0.001,VALID,20.013,VALID,339.0,VALID,0.0,
2018-06-19, 01:20:06,VALID,917.933,VALID,0.0,VALID,96.884,VALID,-0.004,VALID,20.016,VALID,350.0,VALID,0.0,
2018-06-19, 01:21:06,VALID,917.927,VALID,0.0,VALID,96.876,VALID,-0.015,VALID,20.022,VALID,350.0,VALID,0.0,
2018-06-19, 01:22:06,VALID,917.92,VALID,0.0,VALID,96.823,VALID,-0.018,VALID,20.017,VALID,355.0,VALID,0.0,
2018-06-19, 01:23:06,VALID,917.897,VALID,0.0,VALID,96.813,VALID,-0.016,VALID,20.006,VALID,357.0,VALID,0.0,
2018-06-19, 01:24:06,VALID,917.899,VALID,0.0,VALID,96.83,VALID,-0.011,VALID,20.001,VALID,349.0,VALID,0.0,
2018-06-19, 01:25:06,VALID,917.883,VALID,0.0,VALID,96.837,VALID,-0.007,VALID,20.009,VALID,350.0,VALID,0.0,
2018-06-19, 01:26:06,VALID,917.868,VALID,0.0,VALID,96.806,VALID,-0.002,VALID,20.012,VALID,340.0,VALID,0.0,
2018-06-19, 01:27:06,VALID,917.845,VALID,0.0,VALID,96.746,VALID,-0.006,VALID,20.006,VALID,345.0,VALID,0.0,
2018-06-19, 01:28:06,VALID,917.812,VALID,0.0,VALID,96.755,VALID,0.005,VALID,20.007,VALID,3.0,VALID,0.0,
2018-06-19, 01:29:06,VALID,917.803,VALID,0.0,VALID,96.68,VALID,0.0,VALID,20.021,VALID,357.0,VALID,0.0,
2018-06-19, 01:30:06,VALID,917.779,VALID,0.0,VALID,96.62,VALID,0.001,VALID,20.036,VALID,10.0,VALID,0.0,
2018-06-19, 01:31:06,VALID,917.765,VALID,0.0,VALID,96.584,VALID,0.001,VALID,20.047,VALID,346.0,VALID,0.0,
2018-06-19, 01:32:06,VALID,917.755,VALID,0.0,VALID,96.506,VALID,-0.008,VALID,20.049,VALID,360.0,VALID,0.0,
2018-06-19, 01:33:06,VALID,917.734,VALID,0.0,VALID,96.478,VALID,0.01,VALID,20.041,VALID,360.0,VALID,0.0,
2018-06-19, 01:34:06,VALID,917.715,VALID,0.0,VALID,96.51,VALID,-0.004,VALID,20.029,VALID,8.0,VALID,0.0,
2018-06-19, 01:35:06,VALID,917.699,VALID,0.0,VALID,96.536,VALID,-0.008,VALID,20.037,VALID,6.0,VALID,0.0,
2018-06-19, 01:36:06,VALID,917.679,VALID,0.0,VALID,96.498,VALID,-0.006,VALID,20.043,VALID,1.0,VALID,0.0,
2018-06-19, 01:37:06,VALID,917.658,VALID,0.0,VALID,96.421,VALID,-0.026,VALID,20.033,VALID,358.0,VALID,0.0,
2018-06-19, 01:38:06,VALID,917.628,VALID,0.0,VALID,96.451,VALID,-0.005,VALID,20.018,VALID,356.0,VALID,0.0,
2018-06-19, 01:39:06,VALID,917.619,VALID,0.0,VALID,96.443,VALID,-0.004,VALID,20.031,VALID,344.0,VALID,0.0,
2018-06-19, 01:40:06,VALID,917.598,VALID,0.0,VALID,96.354,VALID,-0.018,VALID,20.039,VALID,347.0,VALID,0.0,
2018-06-19, 01:41:06,VALID,917.581,VALID,0.0,VALID,96.28,VALID,-0.028,VALID,20.041,VALID,350.0,VALID,0.0,
2018-06-19, 01:42:06,VALID,917.569,VALID,0.0,VALID,96.239,VALID,-0.019,VALID,20.041,VALID,7.0,VALID,0.0,
2018-06-19, 01:43:06,VALID,917.557,VALID,0.0,VALID,96.155,VALID,-0.03,VALID,20.026,VALID,356.0,VALID,0.0,
2018-06-19, 01:44:06,VALID,917.542,VALID,0.0,VALID,96.182,VALID,-0.018,VALID,20.015,VALID,354.0,VALID,0.0,
2018-06-19, 01:45:06,VALID,917.527,VALID,0.0,VALID,96.217,VALID,-0.024,VALID,20.009,VALID,346.0,VALID,0.0,
2018-06-19, 01:46:06,VALID,917.512,VALID,0.0,VALID,96.241,VALID,-0.032,VALID,20.011,VALID,319.0,VALID,0.0,
2018-06-19, 01:47:06,VALID,917.491,VALID,0.0,VALID,96.248,VALID,-0.009,VALID,20.009,VALID,322.0,VALID,0.0,
2018-06-19, 01:48:06,VALID,917.482,VALID,0.0,VALID,96.305,VALID,-0.034,VALID,20.02,VALID,330.0,VALID,0.0,
2018-06-19, 01:49:06,VALID,917.475,VALID,0.0,VALID,96.221,VALID,-0.019,VALID,20.021,VALID,301.0,VALID,0.0,
2018-06-19, 01:50:06,VALID,917.464,VALID,0.0,VALID,96.255,VALID,0.007,VALID,20.031,VALID,297.0,VALID,0.0,
2018-06-19, 01:51:06,VALID,917.446,VALID,0.0,VALID,96.204,VALID,0.013,VALID,20.038,VALID,297.0,VALID,0.0,
2018-06-19, 01:52:06,VALID,917.447,VALID,0.0,VALID,96.181,VALID,0.028,VALID,20.048,VALID,297.0,VALID,0.0,
2018-06-19, 01:53:06,VALID,917.457,VALID,0.0,VALID,96.114,VALID,0.014,VALID,20.056,VALID,325.0,VALID,0.0,
2018-06-19, 01:54:06,VALID,917.451,VALID,0.0,VALID,95.922,VALID,0.027,VALID,20.061,VALID,340.0,VALID,0.0,
2018-06-19, 01:55:06,VALID,917.447,VALID,0.0,VALID,95.744,VALID,0.032,VALID,20.034,VALID,346.0,VALID,0.0,
2018-06-19, 01:56:06,VALID,917.448,VALID,0.0,VALID,95.654,VALID,0.04,VALID,19.986,VALID,13.0,VALID,0.0,
2018-06-19, 01:57:06,VALID,917.456,VALID,0.0,VALID,95.734,VALID,0.023,VALID,19.939,VALID,24.0,VALID,0.0,
2018-06-19, 01:58:06,VALID,917.464,VALID,0.0,VALID,95.843,VALID,0.022,VALID,19.885,VALID,30.0,VALID,0.0,
2018-06-19, 01:59:06,VALID,917.467,VALID,0.0,VALID,95.941,VALID,0.032,VALID,19.843,VALID,62.0,VALID,0.0,
2018-06-19, 02:00:06,VALID,917.464,VALID,0.0,VALID,96.267,VALID,0.026,VALID,19.834,VALID,61.0,VALID,0.0,
2018-06-19, 02:01:06,VALID,917.455,VALID,0.0,VALID,96.563,VALID,0.041,VALID,19.854,VALID,62.0,VALID,0.0,
2018-06-19, 02:02:06,VALID,917.443,VALID,0.0,VALID,96.737,VALID,0.025,VALID,19.897,VALID,61.0,VALID,0.0,
2018-06-19, 02:03:06,VALID,917.437,VALID,0.0,VALID,96.465,VALID,0.023,VALID,19.945,VALID,49.0,VALID,0.0,
2018-06-19, 02:04:06,VALID,917.427,VALID,0.0,VALID,95.969,VALID,0.025,VALID,19.957,VALID,43.0,VALID,0.0,
2018-06-19, 02:05:06,VALID,917.4,VALID,0.0,VALID,95.705,VALID,0.024,VALID,19.922,VALID,42.0,VALID,0.0,
2018-06-19, 02:06:06,VALID,917.364,VALID,0.0,VALID,96.04,VALID,0.017,VALID,19.927,VALID,28.0,VALID,0.0,
2018-06-19, 02:07:06,VALID,917.328,VALID,0.0,VALID,96.19,VALID,0.015,VALID,19.959,VALID,22.0,VALID,0.0,
2018-06-19, 02:08:06,VALID,917.301,VALID,0.0,VALID,96.025,VALID,0.032,VALID,19.985,VALID,15.0,VALID,0.0,
2018-06-19, 02:09:06,VALID,917.287,VALID,0.0,VALID,95.953,VALID,0.038,VALID,20.005,VALID,355.0,VALID,0.0,
2018-06-19, 02:10:06,VALID,917.271,VALID,0.0,VALID,95.862,VALID,0.036,VALID,20.044,VALID,349.0,VALID,0.0,
2018-06-19, 02:11:06,VALID,917.239,VALID,0.0,VALID,95.713,VALID,0.022,VALID,20.075,VALID,349.0,VALID,0.0,
2018-06-19, 02:12:06,VALID,917.213,VALID,0.0,VALID,95.618,VALID,0.009,VALID,20.111,VALID,349.0,VALID,0.0,
2018-06-19, 02:13:06,VALID,917.205,VALID,0.0,VALID,95.387,VALID,0.016,VALID,20.108,VALID,349.0,VALID,0.0,
2018-06-19, 02:14:06,VALID,917.18,VALID,0.0,VALID,94.993,VALID,0.027,VALID,20.046,VALID,349.0,VALID,0.0,
2018-06-19, 02:15:06,VALID,917.178,VALID,0.0,VALID,94.939,VALID,0.011,VALID,19.986,VALID,349.0,VALID,0.0,
2018-06-19, 02:16:06,VALID,917.172,VALID,0.0,VALID,95.122,VALID,0.003,VALID,19.926,VALID,349.0,VALID,0.0,
2018-06-19, 02:17:06,VALID,917.18,VALID,0.0,VALID,95.351,VALID,0.008,VALID,19.871,VALID,349.0,VALID,0.0,
2018-06-19, 02:18:06,VALID,917.187,VALID,0.0,VALID,95.494,VALID,0.031,VALID,19.825,VALID,349.0,VALID,0.0,
2018-06-19, 02:19:06,VALID,917.186,VALID,0.0,VALID,95.525,VALID,0.003,VALID,19.781,VALID,349.0,VALID,0.0,
2018-06-19, 02:20:06,VALID,917.184,VALID,0.0,VALID,95.619,VALID,0.01,VALID,19.745,VALID,349.0,VALID,0.0,
2018-06-19, 02:21:06,VALID,917.182,VALID,0.0,VALID,95.819,VALID,-0.001,VALID,19.722,VALID,349.0,VALID,0.0,
2018-06-19, 02:22:06,VALID,917.16,VALID,0.0,VALID,96.163,VALID,-0.006,VALID,19.713,VALID,349.0,VALID,0.0,
2018-06-19, 02:23:06,VALID,917.163,VALID,0.0,VALID,96.333,VALID,0.007,VALID,19.687,VALID,349.0,VALID,0.0,
2018-06-19, 02:24:06,VALID,917.157,VALID,0.0,VALID,96.569,VALID,0.003,VALID,19.678,VALID,350.0,VALID,0.0,
2018-06-19, 02:25:06,VALID,917.163,VALID,0.0,VALID,96.631,VALID,0.013,VALID,19.648,VALID,59.0,VALID,0.0,
2018-06-19, 02:26:06,VALID,917.164,VALID,0.0,VALID,96.721,VALID,0.023,VALID,19.628,VALID,69.0,VALID,0.0,
2018-06-19, 02:27:06,VALID,917.165,VALID,0.0,VALID,96.827,VALID,0.008,VALID,19.606,VALID,99.0,VALID,0.0,
2018-06-19, 02:28:06,VALID,917.164,VALID,0.0,VALID,96.709,VALID,0.01,VALID,19.545,VALID,111.0,VALID,0.0,
2018-06-19, 02:29:06,VALID,917.159,VALID,0.0,VALID,96.655,VALID,0.006,VALID,19.49,VALID,112.0,VALID,0.0,
2018-06-19, 02:30:06,VALID,917.167,VALID,0.0,VALID,96.814,VALID,-0.004,VALID,19.458,VALID,118.0,VALID,0.0,
2018-06-19, 02:31:06,VALID,917.151,VALID,0.0,VALID,97.092,VALID,0.001,VALID,19.454,VALID,127.0,VALID,0.0,
2018-06-19, 02:32:06,VALID,917.148,VALID,0.0,VALID,97.155,VALID,0.012,VALID,19.44,VALID,123.0,VALID,0.0,
2018-06-19, 02:33:06,VALID,917.149,VALID,0.0,VALID,97.336,VALID,0.024,VALID,19.457,VALID,130.0,VALID,0.0,
2018-06-19, 02:34:06,VALID,917.136,VALID,0.0,VALID,97.656,VALID,-0.009,VALID,19.498,VALID,120.0,VALID,0.0,
2018-06-19, 02:35:06,VALID,917.123,VALID,0.0,VALID,97.916,VALID,0.017,VALID,19.527,VALID,109.0,VALID,0.0,
2018-06-19, 02:36:06,VALID,917.096,VALID,0.0,VALID,97.937,VALID,0.004,VALID,19.499,VALID,101.0,VALID,0.0,
2018-06-19, 02:37:06,VALID,917.082,VALID,0.0,VALID,97.943,VALID,0.006,VALID,19.489,VALID,99.0,VALID,0.0,
2018-06-19, 02:38:06,VALID,917.058,VALID,0.0,VALID,98.016,VALID,-0.012,VALID,19.496,VALID,100.0,VALID,0.0,
2018-06-19, 02:39:06,VALID,917.052,VALID,0.0,VALID,98.105,VALID,0.013,VALID,19.523,VALID,101.0,VALID,0.0,
2018-06-19, 02:40:06,VALID,917.043,VALID,0.0,VALID,98.153,VALID,0.016,VALID,19.523,VALID,101.0,VALID,0.0,
2018-06-19, 02:41:06,VALID,917.041,VALID,0.0,VALID,98.159,VALID,0.015,VALID,19.51,VALID,101.0,VALID,0.0,
2018-06-19, 02:42:06,VALID,917.034,VALID,0.0,VALID,98.12,VALID,0.012,VALID,19.479,VALID,101.0,VALID,0.0,
2018-06-19, 02:43:06,VALID,917.026,VALID,0.0,VALID,98.124,VALID,0.001,VALID,19.476,VALID,101.0,VALID,0.0,
2018-06-19, 02:44:06,VALID,917.018,VALID,0.0,VALID,98.148,VALID,-0.006,VALID,19.475,VALID,101.0,VALID,0.0,
2018-06-19, 02:45:06,VALID,917.023,VALID,0.0,VALID,98.115,VALID,-0.01,VALID,19.446,VALID,101.0,VALID,0.0,
2018-06-19, 02:46:06,VALID,917.015,VALID,0.0,VALID,98.132,VALID,-0.013,VALID,19.434,VALID,101.0,VALID,0.0,
2018-06-19, 02:47:06,VALID,917.003,VALID,0.0,VALID,98.11,VALID,-0.004,VALID,19.421,VALID,101.0,VALID,0.0,
2018-06-19, 02:48:06,VALID,916.995,VALID,0.0,VALID,98.069,VALID,0.011,VALID,19.401,VALID,101.0,VALID,0.0,
2018-06-19, 02:49:06,VALID,917.0,VALID,0.0,VALID,97.936,VALID,0.015,VALID,19.351,VALID,101.0,VALID,0.0,
2018-06-19, 02:50:06,VALID,917.0,VALID,0.0,VALID,97.764,VALID,0.002,VALID,19.288,VALID,101.0,VALID,0.0,
2018-06-19, 02:51:06,VALID,917.0,VALID,0.0,VALID,97.602,VALID,0.005,VALID,19.236,VALID,101.0,VALID,0.0,
2018-06-19, 02:52:06,VALID,916.995,VALID,0.0,VALID,97.573,VALID,-0.01,VALID,19.209,VALID,101.0,VALID,0.0,
2018-06-19, 02:53:06,VALID,916.994,VALID,0.0,VALID,97.657,VALID,-0.002,VALID,19.216,VALID,101.0,VALID,0.0,
2018-06-19, 02:54:06,VALID,916.97,VALID,0.0,VALID,97.79,VALID,0.006,VALID,19.239,VALID,100.0,VALID,0.0,
2018-06-19, 02:55:06,VALID,916.966,VALID,0.0,VALID,97.835,VALID,0.005,VALID,19.227,VALID,100.0,VALID,0.0,
2018-06-19, 02:56:06,VALID,916.965,VALID,0.0,VALID,97.953,VALID,0.003,VALID,19.246,VALID,100.0,VALID,0.0,
2018-06-19, 02:57:06,VALID,916.961,VALID,0.0,VALID,97.973,VALID,-0.02,VALID,19.24,VALID,100.0,VALID,0.0,
2018-06-19, 02:58:06,VALID,916.973,VALID,0.0,VALID,98.093,VALID,-0.005,VALID,19.267,VALID,100.0,VALID,0.0,
2018-06-19, 02:59:06,VALID,916.983,VALID,0.0,VALID,98.179,VALID,-0.001,VALID,19.292,VALID,100.0,VALID,0.0,
2018-06-19, 03:00:06,VALID,916.986,VALID,0.0,VALID,98.199,VALID,0.003,VALID,19.282,VALID,100.0,VALID,0.0,
2018-06-19, 03:01:06,VALID,916.986,VALID,0.0,VALID,98.214,VALID,-0.002,VALID,19.267,VALID,100.0,VALID,0.0,
2018-06-19, 03:02:06,VALID,916.991,VALID,0.0,VALID,98.252,VALID,-0.006,VALID,19.265,VALID,102.0,VALID,0.0,
2018-06-19, 03:03:06,VALID,916.979,VALID,0.0,VALID,98.271,VALID,0.004,VALID,19.275,VALID,103.0,VALID,0.0,
2018-06-19, 03:04:06,VALID,916.982,VALID,0.0,VALID,98.337,VALID,0.009,VALID,19.285,VALID,103.0,VALID,0.0,
2018-06-19, 03:05:06,VALID,916.979,VALID,0.0,VALID,98.341,VALID,-0.009,VALID,19.283,VALID,103.0,VALID,0.0,
2018-06-19, 03:06:06,VALID,916.971,VALID,0.0,VALID,98.335,VALID,-0.0,VALID,19.28,VALID,103.0,VALID,0.0,
2018-06-19, 03:07:06,VALID,916.981,VALID,0.0,VALID,98.357,VALID,0.006,VALID,19.291,VALID,103.0,VALID,0.0,
2018-06-19, 03:08:06,VALID,916.997,VALID,0.0,VALID,98.369,VALID,0.01,VALID,19.283,VALID,103.0,VALID,0.0,
2018-06-19, 03:09:06,VALID,917.005,VALID,0.0,VALID,98.334,VALID,0.005,VALID,19.251,VALID,103.0,VALID,0.0,
2018-06-19, 03:10:06,VALID,917.013,VALID,0.0,VALID,98.316,VALID,0.014,VALID,19.243,VALID,103.0,VALID,0.0,
2018-06-19, 03:11:06,VALID,917.02,VALID,0.0,VALID,98.296,VALID,0.008,VALID,19.222,VALID,103.0,VALID,0.0,
2018-06-19, 03:12:06,VALID,917.017,VALID,0.0,VALID,98.271,VALID,0.006,VALID,19.212,VALID,103.0,VALID,0.0,
2018-06-19, 03:13:06,VALID,917.014,VALID,0.0,VALID,98.273,VALID,0.014,VALID,19.217,VALID,103.0,VALID,0.0,
2018-06-19, 03:14:06,VALID,917.003,VALID,0.0,VALID,98.245,VALID,-0.014,VALID,19.198,VALID,103.0,VALID,0.0,
2018-06-19, 03:15:06,VALID,916.993,VALID,0.0,VALID,98.233,VALID,0.007,VALID,19.184,VALID,103.0,VALID,0.0,
2018-06-19, 03:16:06,VALID,916.979,VALID,0.0,VALID,98.189,VALID,0.015,VALID,19.16,VALID,103.0,VALID,0.0,
2018-06-19, 03:17:06,VALID,916.973,VALID,0.0,VALID,97.822,VALID,0.021,VALID,19.041,VALID,103.0,VALID,0.0,
2018-06-19, 03:18:06,VALID,916.966,VALID,0.0,VALID,97.475,VALID,0.003,VALID,18.944,VALID,103.0,VALID,0.0,
2018-06-19, 03:19:06,VALID,916.973,VALID,0.0,VALID,97.469,VALID,0.007,VALID,18.934,VALID,103.0,VALID,0.0,
2018-06-19, 03:20:06,VALID,916.976,VALID,0.0,VALID,97.651,VALID,0.025,VALID,18.962,VALID,103.0,VALID,0.0,
2018-06-19, 03:21:06,VALID,916.981,VALID,0.0,VALID,97.814,VALID,0.019,VALID,19.005,VALID,103.0,VALID,0.0,
2018-06-19, 03:22:06,VALID,916.98,VALID,0.0,VALID,97.869,VALID,0.028,VALID,19.023,VALID,103.0,VALID,0.0,
2018-06-19, 03:23:06,VALID,916.985,VALID,0.0,VALID,97.885,VALID,0.023,VALID,19.01,VALID,103.0,VALID,0.0,
2018-06-19, 03:24:06,VALID,916.987,VALID,0.0,VALID,97.934,VALID,-0.007,VALID,19.026,VALID,103.0,VALID,0.0,
2018-06-19, 03:25:06,VALID,916.987,VALID,0.0,VALID,97.998,VALID,-0.0,VALID,19.042,VALID,103.0,VALID,0.0,
2018-06-19, 03:26:06,VALID,916.986,VALID,0.0,VALID,98.077,VALID,0.022,VALID,19.083,VALID,103.0,VALID,0.0,
2018-06-19, 03:27:06,VALID,916.972,VALID,0.0,VALID,98.179,VALID,0.035,VALID,19.134,VALID,103.0,VALID,0.0,
2018-06-19, 03:28:06,VALID,916.974,VALID,0.0,VALID,98.134,VALID,0.024,VALID,19.1,VALID,103.0,VALID,0.0,
2018-06-19, 03:29:06,VALID,916.981,VALID,0.0,VALID,97.892,VALID,0.029,VALID,18.991,VALID,103.0,VALID,0.0,
2018-06-19, 03:30:06,VALID,916.98,VALID,0.0,VALID,97.763,VALID,0.022,VALID,18.922,VALID,103.0,VALID,0.0,
2018-06-19, 03:31:06,VALID,916.978,VALID,0.0,VALID,97.762,VALID,0.02,VALID,18.895,VALID,121.0,VALID,0.0,
2018-06-19, 03:32:06,VALID,916.977,VALID,0.0,VALID,97.992,VALID,0.024,VALID,18.946,VALID,122.0,VALID,0.0,
2018-06-19, 03:33:06,VALID,916.964,VALID,0.0,VALID,98.062,VALID,0.027,VALID,18.931,VALID,130.0,VALID,0.0,
2018-06-19, 03:34:06,VALID,916.97,VALID,0.0,VALID,98.101,VALID,0.02,VALID,18.906,VALID,145.0,VALID,0.0,
2018-06-19, 03:35:06,VALID,916.961,VALID,0.0,VALID,98.097,VALID,0.023,VALID,18.874,VALID,143.0,VALID,0.0,
2018-06-19, 03:36:06,VALID,916.964,VALID,0.0,VALID,98.08,VALID,-0.0,VALID,18.835,VALID,143.0,VALID,0.0,
2018-06-19, 03:37:06,VALID,916.963,VALID,0.0,VALID,98.095,VALID,0.009,VALID,18.824,VALID,143.0,VALID,0.0,
2018-06-19, 03:38:06,VALID,916.971,VALID,0.0,VALID,98.208,VALID,0.006,VALID,18.873,VALID,143.0,VALID,0.0,
2018-06-19, 03:39:06,VALID,916.977,VALID,0.0,VALID,98.202,VALID,0.0,VALID,18.852,VALID,143.0,VALID,0.0,
2018-06-19, 03:40:06,VALID,917.004,VALID,0.0,VALID,98.133,VALID,0.016,VALID,18.811,VALID,143.0,VALID,0.0,
2018-06-19, 03:41:06,VALID,917.001,VALID,0.0,VALID,98.072,VALID,0.016,VALID,18.771,VALID,143.0,VALID,0.0,
2018-06-19, 03:42:06,VALID,917.017,VALID,0.0,VALID,98.005,VALID,0.016,VALID,18.755,VALID,143.0,VALID,0.0,